FENGYUN 1C DEB, 38148

Orbit data source: Space-Track

FENGYUN 1C DEB, 38148 is space debris in SSO originally from a launch on Mon, 10 May 1999 UTC launched from the Taiyaun Space Center, China (TSC). Fengyun 1C debris stems from the Chinese weather satellite Fengyun-1C, which was intentionally destroyed by a Chinese anti-satellite missile in 2007. This event dramatically increased the amount of space debris, with thousands of trackable fragments posing hazards to satellites and human spaceflight. The Fengyun 1C debris cloud has become a focal point in discussions about space sustainability and the need for international regulations to prevent the creation of new debris.

Loading next visibility...
Identifier
38148, 1999-025EQV
Orbit
SSO
Country
Flag of CNCN / PRC
Related business
Manufacturer
Unknown
Mission
Spacecraft
Bus & Motor
Unknown
Mass
Unknown
Launch date (UTC)
1999-05-10 (27 years ago)
Launch vehicle
Unknown
Launch site
Taiyaun Space Center, China (TSC)
Object type
Payload
Rocket body
Debris
Shape & HBR
Unknown shape, 0.1 m
Radar Cross Section
Small (<0.1 m²)

Expand to show TLE details & history
Last TLE update: 10 hours ago

TLE from 10 hours ago
0 FENGYUN 1C DEB
1 38148U 99025EQV 26238.08596113  .00002305  00000-0  15059-2 0  9995
2 38148  99.0598 354.2723 0157397 140.0946 221.1913 13.97368249632156
Epoch: 2026-08-26T02:03Z
TLE epoch observation values (Epoch: 2026-08-26T02:03:47.041Z)
Latitude
-0.00003°
Longitude
-11.01771°
Altitude
992.822 km
Speed
7.311 km/s
True Right ascension
23h 37m 05s
True Declination
0° 00' 00"
Sunlit
Object was in full shadow at epoch
Visualization orbit readout
Latitude
Unknown
Longitude
Unknown
Altitude
Unknown
Speed
Unknown
Apparent Right ascension
Unknown
Apparent Declination
Unknown
Sunlit
N/A
Visualization observer readout
Local Sidereal Time
03:35:28
Azimuth
Unknown
Elevation
Unknown
Doppler factor
Unknown
Orbital elements
Apogee altitude
1,014.685 km
Perigee altitude
785.57 km
Semi-major axis
7,278.265 km
Eccentricity
0.01574
Inclination
99.0598°
RAAN
354.2723°
Arg. of periapsis
140.0946°
True anomaly
220.02089°
Mean anomaly
221.1913°
Eccentric anomaly
220.60437°
Mean motion
3.49544 °/min
Orbital period
102.99 mins
BSTAR
0.0015059
Loading maneuver chart data...
Computing Atmospheric mass density...

Documentation

Showing up to 5 results
|